FW0454 Weather Reports


Display with metric or nautical units.
time (UTC)temp
F
wind
direction
speed
MPH
gust
MPH
rain 1hr
in
rain 24hr
in
rain mn
in
humidity
%
barometer
mb
20190122075323 33 277 3.0 8.0 0.00 1.38 0.04 96 998.9
20190122074814 33 280 4.0 9.0 0.00 1.38 0.04 96 998.8
20190122074328 33 196 4.0 9.0 0.00 1.38 0.04 96 998.8
20190122073823 33 233 3.0 7.0 0.00 1.38 0.04 96 998.9
20190122073334 33 191 4.0 7.0 0.00 1.38 0.04 96 998.8
20190122072824 33 251 4.0 8.0 0.00 1.38 0.04 96 998.9
20190122072335 33 256 3.0 7.0 0.00 1.38 0.04 96 998.9
20190122071826 33 238 4.0 8.0 0.00 1.38 0.04 96 998.9
20190122071317 33 246 3.0 8.0 0.00 1.38 0.04 96 999.0
20190122070828 33 253 3.0 9.0 0.00 1.38 0.04 96 998.9
20190122070335 33 250 4.0 9.0 0.00 1.38 0.04 96 999.1
20190122065826 33 262 4.0 7.0 0.00 1.42 0.04 96 999.2
20190122065323 33 242 4.0 9.0 0.00 1.42 0.04 96 998.9
20190122064833 33 211 4.0 9.0 0.00 1.42 0.04 96 999.0
20190122064324 33 273 3.0 7.0 0.00 1.42 0.04 96 999.0
20190122063835 33 271 4.0 9.0 0.00 1.42 0.04 96 999.2
20190122063326 33 246 3.0 9.0 0.00 1.42 0.04 96 999.2
20190122062817 33 244 5.0 9.0 0.00 1.42 0.04 95 999.3
20190122062328 33 269 5.0 9.0 0.00 1.42 0.04 95 999.3
20190122061821 33 279 3.0 11.0 0.00 1.42 0.04 95 999.2
20190122061336 33 279 6.0 11.0 0.00 1.42 0.04 95 999.1
20190122060826 33 292 5.0 10.0 0.00 1.42 0.04 95 999.2
20190122060335 33 290 3.0 11.0 0.00 1.42 0.04 95 999.2
20190122055826 33 276 5.0 11.0 0.00 1.46 0.04 95 999.1
20190122055319 33 283 5.0 9.0 0.00 1.46 0.04 96 999.2
20190122054830 33 282 5.0 8.0 0.00 1.46 0.04 96 999.3
20190122054320 33 265 4.0 11.0 0.00 1.46 0.04 96 999.3
20190122053832 33 263 3.0 11.0 0.00 1.46 0.04 96 999.3
20190122053326 33 281 4.0 9.0 0.00 1.46 0.04 96 999.2
20190122052836 33 270 4.0 9.0 0.00 1.46 0.04 96 999.3
20190122052325 33 277 4.0 9.0 0.00 1.46 0.04 96 999.3
20190122051817 33 157 4.0 8.0 0.00 1.46 0.04 96 999.5
20190122051327 33 277 4.0 10.0 0.00 1.46 0.04 96 999.5
20190122050818 33 219 3.0 9.0 0.00 1.46 0.04 96 999.4
20190122050327 33 293 3.0 8.0 0.00 1.46 0.04 96 999.5
20190122045818 33 319 4.0 11.0 0.00 1.54 0.04 95 999.7
20190122045330 33 289 7.0 12.0 0.00 1.54 0.04 95 999.9
20190122044824 33 277 5.0 12.0 0.00 1.54 0.04 95 999.8
20190122044315 33 277 5.0 13.0 0.00 1.54 0.04 95 999.8
20190122043830 33 281 4.0 13.0 0.00 1.54 0.04 95 999.8
20190122043319 33 276 4.0 11.0 0.00 1.54 0.04 95 999.7
20190122042830 33 248 4.0 11.0 0.00 1.54 0.04 95 999.8
20190122042322 33 191 6.0 11.0 0.00 1.54 0.04 95 999.9
20190122041833 33 234 4.0 9.0 0.00 1.54 0.04 95 999.9
20190122041325 33 230 4.0 9.0 0.00 1.54 0.04 96 999.9
20190122040819 33 240 5.0 9.0 0.00 1.54 0.04 96 1000.0
20190122040327 33 271 3.0 9.0 0.00 1.54 0.04 96 1000.0
20190122035818 33 214 4.0 9.0 0.00 1.65 0.04 96 1000.1
20190122035329 33 263 5.0 11.0 0.00 1.65 0.04 96 1000.1
20190122034819 34 229 4.0 10.0 0.00 1.65 0.04 96 1000.2
20190122034329 34 259 4.0 10.0 0.00 1.65 0.04 96 1000.2
20190122033820 34 254 4.0 9.0 0.00 1.65 0.04 96 1000.1
20190122033333 34 221 4.0 8.0 0.00 1.65 0.04 96 1000.1
20190122032828 34 266 4.0 10.0 0.00 1.65 0.04 96 1000.1
20190122032319 34 236 7.0 10.0 0.00 1.65 0.04 96 1000.3
20190122031832 34 267 4.0 9.0 0.00 1.65 0.04 96 1000.2
20190122031325 34 275 5.0 8.0 0.00 1.65 0.04 96 1000.2
20190122030836 34 238 5.0 12.0 0.00 1.65 0.04 96 1000.2
20190122030324 34 268 5.0 9.0 0.00 1.65 0.04 96 1000.3
20190122025833 34 227 6.0 10.0 0.00 1.73 0.04 96 1000.3
20190122025324 34 207 4.0 9.0 0.00 1.73 0.04 96 1000.3
20190122024819 34 260 5.0 9.0 0.00 1.73 0.04 96 1000.5
20190122024330 35 259 3.0 9.0 0.00 1.73 0.04 96 1000.6
20190122023821 35 244 5.0 9.0 0.00 1.73 0.04 96 1000.5
20190122023332 35 232 3.0 10.0 0.00 1.73 0.04 96 1000.6
20190122022823 35 234 4.0 10.0 0.00 1.73 0.04 97 1000.7
20190122022317 35 288 4.0 12.0 0.04 1.73 0.04 97 1000.8
20190122021828 35 261 4.0 12.0 0.04 1.73 0.04 97 1000.9
20190122021318 34 252 6.0 11.0 0.04 1.73 0.04 97 1001.1
20190122020831 34 240 4.0 8.0 0.04 1.73 0.04 97 1001.0
20190122020323 34 240 3.0 9.0 0.04 1.73 0.04 97 1001.1
20190122015833 34 254 4.0 9.0 0.08 1.81 0.04 97 1001.1
20190122015323 34 247 4.0 9.0 0.08 1.81 0.04 97 1001.1
20190122014814 34 227 3.0 8.0 0.08 1.81 0.04 97 1001.1
20190122014328 34 273 4.0 7.0 0.08 1.81 0.04 97 1001.2
20190122013818 34 231 2.0 7.0 0.08 1.81 0.04 97 1001.2
20190122013330 34 267 4.0 7.0 0.08 1.81 0.04 97 1001.3
20190122012820 34 284 4.0 7.0 0.04 1.77 0.03 97 1001.2
20190122012333 34 232 2.0 6.0 0.04 1.77 0.03 97 1001.2
20190122011824 34 234 2.0 6.0 0.04 1.77 0.03 97 1001.3
20190122011334 34 296 3.0 7.0 0.08 1.77 0.03 97 1001.4
20190122010825 34 259 3.0 6.0 0.08 1.77 0.03 97 1001.4
20190122010333 34 219 3.0 6.0 0.12 1.77 0.03 97 1001.5
20190122005823 34 302 2.0 5.0 0.16 1.73 0.02 97 1001.6
20190122005334 34 283 2.0 5.0 0.16 1.73 0.02 97 1001.6
20190122004824 34 246 2.0 5.0 0.24 1.73 0.02 96 1001.5
20190122004319 34 282 2.0 5.0 0.24 1.73 0.02 96 1001.6
20190122003832 34 284 2.0 4.0 0.28 1.73 0.02 96 1001.6
20190122003324 34 284 2.0 5.0 0.31 1.73 0.02 96 1001.7
20190122002834 34 295 2.0 5.0 0.31 1.73 0.02 96 1001.8
20190122002325 35 294 2.0 8.0 0.35 1.73 0.02 96 1001.8
20190122001834 35 335 3.0 11.0 0.35 1.69 0.02 96 1001.9
20190122001325 36 248 4.0 13.0 0.39 1.69 0.02 97 1001.9
20190122000816 36 229 6.0 13.0 0.43 1.69 0.02 97 1001.9
20190122000324 36 247 6.0 12.0 0.39 1.61 0.00 97 1002.0
20190121235817 36 194 3.0 9.0 0.39 1.57 0.31 97 1001.8
20190121235328 36 180 5.0 12.0 0.39 1.54 0.31 97 1001.9
20190121234818 36 174 5.0 12.0 0.39 1.50 0.30 97 1002.0
20190121234330 36 181 5.0 10.0 0.43 1.50 0.30 97 1002.1
20190121233819 36 196 6.0 11.0 0.39 1.46 0.29 97 1002.1
20190121233330 36 150 5.0 12.0 0.39 1.42 0.28 97 1002.2
20190121232821 36 198 6.0 12.0 0.43 1.42 0.28 97 1002.2
20190121232332 36 178 4.0 10.0 0.39 1.38 0.28 97 1002.4
20190121231830 36 181 4.0 13.0 0.39 1.34 0.27 97 1002.4
20190121231324 36 178 7.0 14.0 0.39 1.30 0.26 97 1002.4
20190121230834 36 157 6.0 15.0 0.35 1.26 0.25 97 1002.5
20190121230320 36 139 9.0 15.0 0.35 1.22 0.24 97 1002.6
20190121225833 36 148 8.0 16.0 0.35 1.18 0.24 97 1002.8
20190121225324 36 165 9.0 15.0 0.35 1.14 0.23 97 1002.8
20190121224835 36 164 8.0 16.0 0.31 1.10 0.22 97 1002.9
20190121224326 36 160 8.0 16.0 0.31 1.06 0.21 97 1003.1
20190121223821 36 153 10.0 17.0 0.28 1.02 0.20 97 1003.2
20190121223335 36 172 10.0 17.0 0.28 1.02 0.20 97 1003.3
20190121222826 36 148 8.0 17.0 0.24 0.98 0.20 97 1003.5
20190121222316 36 157 10.0 17.0 0.24 0.98 0.20 97 1003.6
20190121221827 36 148 7.0 14.0 0.20 0.94 0.19 97 1003.8
20190121221317 36 175 7.0 15.0 0.16 0.91 0.18 97 1003.9
20190121220827 36 150 5.0 15.0 0.20 0.91 0.18 97 1004.2
20190121220335 36 157 7.0 14.0 0.16 0.87 0.17 97 1004.3
20190121215826 36 175 7.0 13.0 0.12 0.83 0.17 97 1004.4
20190121215321 36 175 6.0 17.0 0.08 0.79 0.16 97 1004.5
20190121214832 36 173 8.0 17.0 0.08 0.79 0.16 97 1004.7
20190121214323 36 152 7.0 17.0 0.04 0.75 0.15 97 1004.7
20190121213813 36 169 10.0 17.0 0.04 0.75 0.15 97 1005.0
20190121213325 36 161 7.0 15.0 0.04 0.75 0.15 97 1005.2
20190121212816 36 156 7.0 13.0 0.04 0.75 0.15 97 1005.3
20190121212329 36 170 7.0 15.0 0.04 0.75 0.15 97 1005.4
20190121211819 36 153 9.0 15.0 0.04 0.75 0.15 97 1005.6
20190121211316 36 165 9.0 15.0 0.04 0.75 0.15 97 1005.7
20190121210827 36 185 8.0 15.0 0.00 0.71 0.14 97 1005.9
20190121210317 36 150 7.0 13.0 0.00 0.71 0.14 97 1006.1
20190121205827 36 203 6.0 14.0 0.00 0.71 0.14 97 1006.2
20190121205316 36 150 6.0 13.0 0.00 0.71 0.14 96 1006.4
20190121204828 36 172 8.0 13.0 0.00 0.71 0.14 96 1006.7
20190121204318 36 161 6.0 13.0 0.00 0.71 0.14 96 1006.8
20190121203828 36 163 7.0 15.0 0.00 0.71 0.14 96 1007.0
20190121203323 36 152 6.0 15.0 0.00 0.71 0.14 96 1007.2
20190121202833 36 157 7.0 12.0 0.00 0.71 0.14 96 1007.3
20190121202323 36 157 7.0 12.0 0.00 0.71 0.14 96 1007.4
20190121201833 36 151 6.0 11.0 0.00 0.71 0.14 96 1007.5
20190121201324 36 155 6.0 11.0 0.00 0.71 0.14 96 1007.7
20190121200818 36 171 6.0 12.0 0.00 0.71 0.14 96 1007.8
20190121200323 36 175 5.0 10.0 0.00 0.71 0.14 96 1008.1
20190121195834 36 169 5.0 10.0 0.00 0.71 0.14 96 1008.1
20190121195322 36 191 4.0 11.0 0.00 0.71 0.14 96 1008.3
20190121194818 36 158 4.0 11.0 0.00 0.71 0.14 96 1008.4
20190121194328 36 197 5.0 10.0 0.00 0.71 0.14 96 1008.6
20190121193818 36 200 5.0 9.0 0.00 0.71 0.14 96 1008.7
20190121193329 36 182 4.0 9.0 0.04 0.71 0.14 96 1008.7
20190121192838 36 171 5.0 9.0 0.04 0.71 0.14 96 1008.9
20190121192326 36 150 4.0 10.0 0.04 0.71 0.14 96 1009.1
20190121191819 36 162 6.0 10.0 0.04 0.71 0.14 96 1009.2
20190121191330 36 144 5.0 10.0 0.04 0.71 0.14 96 1009.4
20190121190824 36 151 5.0 10.0 0.04 0.71 0.14 96 1009.6
20190121190329 36 172 6.0 11.0 0.04 0.71 0.14 96 1009.7
20190121185823 36 149 5.0 11.0 0.04 0.71 0.14 96 1009.9
20190121185314 36 186 5.0 13.0 0.04 0.71 0.14 96 1010.0
20190121184827 36 190 4.0 12.0 0.04 0.71 0.14 96 1010.1
20190121184321 36 186 5.0 11.0 0.04 0.71 0.14 96 1010.3
20190121183830 36 148 6.0 11.0 0.04 0.71 0.14 96 1010.4
20190121183320 36 173 4.0 12.0 0.00 0.67 0.13 96 1010.5
20190121182817 36 168 6.0 12.0 0.00 0.67 0.13 96 1010.5
20190121182328 36 174 4.0 11.0 0.00 0.67 0.13 96 1010.6
20190121181822 36 171 6.0 11.0 0.00 0.67 0.13 96 1010.7
20190121181331 36 175 6.0 11.0 0.00 0.67 0.13 96 1010.8
20190121180825 36 194 4.0 12.0 0.00 0.67 0.13 96 1010.9
20190121180332 37 161 6.0 11.0 0.00 0.67 0.13 96 1011.0
20190121175822 37 164 6.0 11.0 0.00 0.71 0.13 96 1011.2
20190121175331 37 141 5.0 10.0 0.00 0.71 0.13 96 1011.4
20190121174821 37 180 5.0 13.0 0.00 0.71 0.13 95 1011.5
20190121174314 37 164 4.0 13.0 0.00 0.71 0.13 95 1011.6
20190121173827 37 188 5.0 12.0 0.00 0.71 0.13 95 1011.8
20190121173318 37 185 5.0 12.0 0.00 0.71 0.13 95 1011.9
20190121172829 37 179 4.0 10.0 0.00 0.71 0.13 95 1012.0
20190121172319 37 157 6.0 12.0 0.00 0.71 0.13 95 1012.1
20190121171829 37 153 5.0 10.0 0.00 0.71 0.13 95 1012.2
20190121171320 37 173 2.0 13.0 0.00 0.71 0.13 95 1012.3
20190121170830 37 173 4.0 9.0 0.00 0.71 0.13 95 1012.5
20190121170322 37 199 4.0 12.0 0.00 0.71 0.13 95 1012.6
20190121165833 37 164 5.0 12.0 0.00 0.71 0.13 95 1012.8
20190121165323 37 172 2.0 8.0 0.00 0.71 0.13 95 1012.9
20190121164834 37 169 2.0 8.0 0.00 0.71 0.13 95 1013.0
20190121164325 37 225 2.0 7.0 0.00 0.71 0.13 95 1013.2
20190121163816 37 173 4.0 7.0 0.00 0.71 0.13 95 1013.4
20190121163327 37 195 3.0 8.0 0.00 0.71 0.13 95 1013.5
20190121162816 37 201 4.0 7.0 0.00 0.71 0.13 95 1013.6
20190121162327 37 192 3.0 7.0 0.00 0.71 0.13 95 1013.8
20190121161821 37 166 3.0 9.0 0.00 0.71 0.13 95 1013.8
20190121161332 37 205 4.0 9.0 0.00 0.71 0.13 95 1013.9
20190121160822 37 198 3.0 7.0 0.00 0.71 0.13 95 1014.0
20190121160328 37 180 4.0 7.0 0.00 0.71 0.13 95 1014.1
20190121155822 37 186 5.0 7.0 0.00 0.75 0.13 95 1014.1
20190121155332 37 197 2.0 7.0 0.00 0.75 0.13 95 1014.2
20190121154823 37 171 4.0 8.0 0.00 0.75 0.13 95 1014.3
20190121154334 37 156 3.0 8.0 0.00 0.75 0.13 95 1014.3
20190121153828 37 171 4.0 8.0 0.00 0.75 0.13 95 1014.4
20190121153319 37 194 2.0 7.0 0.00 0.75 0.13 95 1014.5
20190121152833 37 190 5.0 8.0 0.00 0.75 0.13 94 1014.6
20190121152324 37 220 5.0 8.0 0.00 0.75 0.13 94 1014.8
20190121151835 37 167 5.0 9.0 0.00 0.75 0.13 94 1014.9
20190121151325 37 156 4.0 10.0 0.00 0.75 0.13 94 1015.0
20190121150834 37 180 5.0 10.0 0.00 0.75 0.13 94 1015.1
20190121150321 38 157 6.0 9.0 0.00 0.75 0.13 94 1015.2
20190121145817 38 179 4.0 9.0 0.00 0.79 0.13 94 1015.4
20190121145328 38 199 3.0 7.0 0.00 0.79 0.13 94 1015.5
20190121144819 38 227 4.0 9.0 0.00 0.79 0.13 94 1015.5
20190121144330 38 126 2.0 8.0 0.00 0.79 0.13 94 1015.6
20190121143821 38 273 4.0 8.0 0.00 0.79 0.13 94 1015.6
20190121143334 38 186 4.0 7.0 0.00 0.79 0.13 94 1015.7
20190121142825 38 167 3.0 8.0 0.00 0.79 0.13 94 1015.8
20190121142316 38 209 3.0 11.0 0.00 0.79 0.13 94 1015.9
20190121141827 38 179 5.0 11.0 0.00 0.79 0.13 95 1016.0
20190121141321 38 203 2.0 6.0 0.00 0.79 0.13 95 1016.1
20190121140831 38 175 2.0 7.0 0.00 0.79 0.13 95 1016.2
20190121140318 38 200 4.0 7.0 0.00 0.79 0.13 95 1016.2
20190121135830 38 192 4.0 7.0 0.00 0.91 0.13 95 1016.2
20190121135321 38 227 3.0 8.0 0.00 0.91 0.13 95 1016.4
20190121134832 38 192 3.0 9.0 0.00 0.91 0.13 95 1016.4
20190121134322 38 198 5.0 10.0 0.04 0.91 0.13 95 1016.5
20190121133813 38 201 4.0 10.0 0.04 0.91 0.13 95 1016.6
20190121133331 38 213 4.0 8.0 0.04 0.91 0.13 95 1016.8
20190121132821 38 198 4.0 8.0 0.04 0.91 0.13 96 1016.8
20190121132335 38 190 4.0 11.0 0.04 0.91 0.13 96 1016.9
20190121131826 38 170 6.0 11.0 0.04 0.91 0.13 96 1017.1
20190121131316 38 207 4.0 8.0 0.04 0.91 0.13 97 1017.2
20190121130827 38 239 4.0 11.0 0.04 0.91 0.13 97 1017.4
20190121130317 38 169 5.0 11.0 0.04 0.91 0.13 97 1017.4
20190121125831 38 212 2.0 7.0 0.04 1.06 0.13 97 1017.5
20190121125326 38 178 2.0 7.0 0.04 1.06 0.13 97 1017.7
20190121124817 38 175 3.0 8.0 0.04 1.06 0.13 97 1017.8
20190121124328 38 178 4.0 8.0 0.04 1.02 0.13 97 1017.9
20190121123818 38 201 3.0 7.0 0.04 1.02 0.13 98 1018.1
20190121123331 37 210 3.0 7.0 0.04 1.02 0.13 97 1018.1
20190121122821 37 159 3.0 8.0 0.04 1.02 0.13 97 1018.3
20190121122335 37 184 4.0 8.0 0.04 1.02 0.13 98 1018.4
20190121121826 37 131 3.0 7.0 0.04 1.02 0.13 98 1018.5
20190121121321 37 155 3.0 6.0 0.04 1.02 0.13 98 1018.6
20190121120832 37 159 3.0 6.0 0.04 1.02 0.13 98 1018.7
20190121120323 37 178 3.0 7.0 0.08 1.02 0.13 98 1018.7
20190121115814 37 193 3.0 7.0 0.08 1.10 0.13 98 1018.8
20190121115328 37 165 3.0 5.0 0.08 1.10 0.13 98 1019.0
20190121114819 36 206 2.0 5.0 0.08 1.10 0.13 98 1019.0
20190121114329 36 205 2.0 6.0 0.04 1.06 0.12 98 1019.2
20190121113820 36 186 2.0 7.0 0.04 1.06 0.12 98 1019.3
20190121113315 36 195 3.0 6.0 0.04 1.06 0.12 98 1019.5
20190121112829 36 198 3.0 7.0 0.04 1.06 0.12 98 1019.6
20190121112320 36 209 4.0 7.0 0.04 1.06 0.12 98 1019.7
20190121111830 36 228 4.0 7.0 0.08 1.06 0.12 98 1019.8
20190121111321 36 203 3.0 8.0 0.08 1.06 0.12 98 1019.9
20190121110831 36 185 3.0 8.0 0.08 1.06 0.12 98 1020.0
20190121110318 36 189 4.0 8.0 0.04 1.02 0.11 98 1020.0
20190121105829 36 205 3.0 6.0 0.04 1.10 0.11 98 1020.1
20190121105320 36 220 3.0 7.0 0.04 1.10 0.11 98 1020.2
20190121104832 36 142 1.0 7.0 0.04 1.10 0.11 98 1020.2
20190121104326 36 206 2.0 7.0 0.04 1.10 0.11 98 1020.2
20190121103817 36 165 2.0 7.0 0.04 1.10 0.11 98 1020.3
20190121103330 36 192 2.0 5.0 0.04 1.10 0.11 98 1020.3
20190121102824 35 220 2.0 8.0 0.04 1.10 0.11 98 1020.4
20190121102315 35 172 2.0 8.0 0.04 1.10 0.11 98 1020.5
20190121101828 35 198 5.0 8.0 0.04 1.06 0.10 98 1020.7
20190121101319 35 209 3.0 6.0 0.04 1.06 0.10 98 1020.8
20190121100813 35 189 2.0 7.0 0.04 1.06 0.10 98 1020.8
20190121100323 35 171 3.0 6.0 0.04 1.06 0.10 98 1020.8
20190121095834 35 176 1.0 4.0 0.04 1.10 0.10 98 1020.9
20190121095325 35 188 3.0 4.0 0.04 1.10 0.10 98 1021.0
20190121094816 35 193 1.0 3.0 0.04 1.10 0.10 98 1021.1
20190121094327 35 193 1.0 8.0 0.04 1.10 0.10 98 1021.2
20190121093817 35 143 2.0 8.0 0.04 1.10 0.10 98 1021.3
20190121093331 35 161 3.0 8.0 0.04 1.10 0.10 98 1021.3
20190121092826 35 152 2.0 8.0 0.04 1.10 0.10 98 1021.3
20190121092317 35 160 3.0 5.0 0.00 1.06 0.09 98 1021.4
20190121091828 35 186 3.0 5.0 0.00 1.06 0.09 98 1021.4
20190121091319 35 155 2.0 5.0 0.00 1.06 0.09 98 1021.5
20190121090830 35 164 3.0 6.0 0.00 1.06 0.09 98 1021.6
20190121090318 35 163 3.0 6.0 0.00 1.06 0.09 98 1021.6
20190121085832 35 153 2.0 3.0 0.00 1.06 0.09 98 1021.7
20190121085323 35 153 1.0 2.0 0.00 1.06 0.09 98 1021.7
20190121084818 35 153 1.0 3.0 0.00 1.06 0.09 98 1021.8
20190121084328 35 153 1.0 3.0 0.00 1.06 0.09 98 1021.8
20190121083819 34 290 1.0 3.0 0.00 1.06 0.09 98 1021.8
20190121083333 34 290 1.0 2.0 0.00 1.06 0.09 98 1021.9
20190121082824 34 290 0.0 1.0 0.00 1.06 0.09 98 1021.9
20190121082335 34 290 0.0 1.0 0.00 1.06 0.09 98 1021.9
20190121081826 34 290 1.0 1.0 0.00 1.06 0.09 98 1022.0
20190121081316 34 290 1.0 1.0 0.00 1.06 0.09 98 1021.9
20190121080828 34 290 0.0 1.0 0.00 1.06 0.09 98 1021.9
20190121080322 34 290 1.0 1.0 0.04 1.06 0.09 98 1022.0
20190121075833 34 290 1.0 1.0 0.04 1.10 0.09 98 1022.0